[[{"header":{"parameterUnit":"m.s-1","parameterCategory":1,"la1":30.2991,"la2":30.254,"lo1":-89.0895,"lo2":-89.0444,"dy":0.0017,"dx":0.0017,"nx":28,"ny":28,"refTime":"2024-05-11T03:00:00:Z","depth":0,"parameterNumber":2,"parameterNumberName":"U-component_of_WINDS"},"data":[0,0,0,0,0,0,0,0,0,0,0,0,0,0,0,0,0,0,0,0,0,0,0,0,0,0,0,0,0,0,0,0,0,0,0,0,0,0,0,0,0,0,0,0,0,0,0,0,0,0,0,0,0,0,0,0,0,0,-5.7313,-5.7313,0,-5.7327,-5.7327,-5.7327,-5.7288,-5.7287,-5.7285,-5.7284,-5.7298,-5.7299,-5.7301,0,0,0,0,0,0,0,0,0,0,0,0,0,-5.7251,-5.7252,-5.7313,-5.7313,-5.7313,-5.7327,-5.7327,-5.7327,-5.7288,-5.7287,-5.7285,-5.7284,-5.7297,-5.7299,-5.7301,0,0,0,0,0,0,0,0,0,0,0,0,0,-5.7273,-5.7253,-5.7312,-5.7295,-5.7294,-5.7327,-5.7327,-5.7327,-5.7288,-5.7287,-5.7285,-5.7283,-5.7297,-5.7299,-5.7301,-5.7351,0,0,-5.7308,-5.7309,0,0,0,0,0,0,0,0,-5.7272,-5.7275,-5.7297,-5.7296,-5.7295,-5.7304,-5.731,-5.7335,-5.7289,-5.729,-5.7284,-5.7282,-5.7301,-5.7303,-5.731,-5.7352,-5.7353,-5.7308,-5.7309,-5.731,-5.7311,0,0,0,0,0,0,0,-5.727,-5.7274,-5.7318,-5.7298,-5.7296,-5.7287,-5.7288,-5.7315,-5.7306,-5.729,-5.7287,-5.729,-5.73,-5.7308,-5.731,-5.7353,-5.7308,-5.731,-5.7311,-5.7312,-5.7438,-5.7439,0,0,0,0,0,0,-5.7271,-5.7273,-5.7318,-5.7319,-5.7279,-5.7289,-5.729,-5.7303,-5.7305,-5.7304,-5.7291,-5.7288,-5.7305,-5.7307,-5.731,-5.7368,-5.731,-5.7312,-5.7314,-5.7436,-5.7438,-5.744,0,0,0,0,0,0,-5.727,-5.7275,-5.7317,-5.7295,-5.73,-5.7292,-5.7306,-5.7304,-5.7311,-5.7306,-5.7304,-5.73,-5.7303,-5.7307,-5.7341,-5.7368,-5.7313,-5.7316,-5.7433,-5.7436,-5.7439,-5.7485,0,0,0,0,0,0,-5.7268,-5.7275,-5.7294,-5.7296,-5.7301,-5.7348,-5.7308,-5.7306,-5.7315,-5.7311,-5.7314,-5.7313,-5.7302,-5.7338,-5.7344,-5.737,-5.7317,-5.7431,-5.7435,-5.7438,-5.7481,-5.7489,-5.7496,0,0,0,0,0,-5.7266,-5.7306,-5.7295,-5.7301,-5.7324,-5.735,-5.7353,-5.734,-5.7318,-5.7336,-5.7334,-5.7313,-5.7365,-5.7342,-5.7348,-5.7375,-5.7429,-5.7434,-5.7438,-5.7478,-5.7488,-5.7496,0,0,0,0,0,0,-5.7306,-5.7306,-5.7294,-5.7335,-5.7343,-5.7343,-5.7366,-5.7351,-5.7364,-5.736,-5.7343,-5.7344,-5.7381,-5.7382,-5.7357,-5.7424,-5.7393,-5.7399,-5.7422,-5.7431,-5.7439,-5.7436,-5.7319,0,0,0,0,0,-5.732,-5.7341,-5.734,-5.7377,-5.7381,-5.7374,-5.7384,-5.7374,-5.7381,-5.7384,-5.7383,-5.739,-5.7408,-5.742,-5.7437,-5.7483,-5.7482,-5.7505,-5.7512,-5.7519,-5.7523,-5.7546,-5.7556,-5.7455,-5.7455,-5.7455,0,0,-5.7348,-5.7351,-5.7365,-5.7385,-5.7389,-5.7411,-5.7376,-5.7401,-5.7416,-5.7387,-5.7419,-5.742,-5.7427,-5.7468,-5.7485,-5.7469,-5.7551,-5.7524,-5.7529,-5.753,-5.7552,-5.7561,-5.757,-5.7458,-5.7457,-5.7457,0,0,-5.741,-5.7415,-5.7446,-5.7452,-5.746,-5.7455,-5.7463,-5.7466,-5.7465,-5.7498,-5.7477,-5.7496,-5.7527,-5.7533,-5.754,-5.7608,-5.7589,-5.7614,-5.7652,-5.7676,-5.7684,-5.7691,-5.7713,-5.7721,-5.7619,-5.7619,-5.762,0,-5.7443,-5.7475,-5.7464,-5.749,-5.7499,-5.7476,-5.7506,-5.7513,-5.7526,-5.7533,-5.7516,-5.7555,-5.7559,-5.76,-5.7617,-5.7624,-5.7632,-5.7612,-5.7684,-5.7691,-5.7697,-5.7718,-5.7727,-5.7622,-5.7622,-5.7622,-5.7621,0,-5.7516,-5.7539,-5.7563,-5.7577,-5.7589,-5.7618,-5.761,-5.7625,-5.7614,-5.7611,-5.7645,-5.7649,-5.7666,-5.7676,-5.7665,-5.7716,-5.7705,-5.7687,-5.7654,-5.7709,-5.7729,-5.7737,-5.7626,-5.7625,-5.7624,-5.7624,0,0,-5.7599,-5.7608,-5.7617,-5.7623,-5.7632,-5.7649,-5.7678,-5.7695,-5.7706,-5.7718,-5.774,-5.7769,-5.7752,-5.776,-5.7751,-5.7772,-5.7824,-5.775,-5.775,-5.7762,-5.7878,-5.789,-5.7899,-5.7813,-5.7815,-5.7816,-5.7876,0,-5.7658,-5.7706,-5.7698,-5.7744,-5.7765,-5.7745,-5.7769,-5.7777,-5.7776,-5.7794,-5.7793,-5.7812,-5.7789,-5.7794,-5.7815,-5.7813,-5.7846,-5.7809,-5.7832,-5.7833,-5.7827,-5.791,-5.7922,-5.7978,-5.7884,-5.7885,-5.7886,0,-5.7733,-5.7747,-5.7796,-5.7802,-5.7811,-5.7833,-5.7848,-5.7866,-5.7875,-5.7873,-5.7884,-5.7871,-5.7899,-5.787,-5.7908,-5.7883,-5.7893,-5.7894,-5.7896,-5.7894,-5.786,-5.7908,-5.7996,-5.8004,-5.7899,-5.7898,-5.7897,0,-5.7786,-5.7818,-5.7851,-5.7857,-5.7866,-5.7882,-5.7887,-5.7894,-5.7906,-5.792,-5.7927,-5.7944,-5.7953,-5.7966,-5.7959,-5.7939,-5.7998,-5.7968,-5.7996,-5.7996,-5.8006,-5.8005,-5.8094,-5.8018,-5.8018,-5.8017,-5.8017,0,-5.7851,-5.7881,-5.7875,-5.7895,-5.7928,-5.7919,-5.7953,-5.7955,-5.7962,-5.7982,-5.7967,-5.7986,-5.7977,-5.7996,-5.7991,-5.8022,-5.8027,-5.8025,-5.8023,-5.8025,-5.8024,-5.8028,-5.8023,-5.802,-5.8019,-5.8019,-5.8018,0,-5.7914,-5.7911,-5.7946,-5.7952,-5.7955,-5.7979,-5.7984,-5.8003,-5.8003,-5.8028,-5.8034,-5.8032,-5.8054,-5.8049,-5.8072,-5.8069,-5.8108,-5.8102,-5.8104,-5.8102,-5.8129,-5.8125,-5.8221,-5.8232,-5.8151,-5.8152,-5.8153,0,-5.7953,-5.7976,-5.7986,-5.7999,-5.8005,-5.8025,-5.8037,-5.8031,-5.8043,-5.8057,-5.8074,-5.8095,-5.811,-5.8145,-5.8145,-5.8163,-5.8156,-5.8189,-5.8158,-5.816,-5.8154,-5.8151,-5.8153,-5.8193,-5.8194,-5.8195,-5.8196,0,-5.8024,-5.8022,-5.804,-5.8058,-5.8073,-5.8087,-5.8099,-5.811,-5.8105,-5.812,-5.8142,-5.8154,-5.8179,-5.8199,-5.8216,-5.822,-5.8206,-5.8206,-5.8213,-5.8213,-5.8212,-5.8211,-5.8117,-5.8203,-5.8202,-5.8201,-5.8201,-5.8201,-5.8075,-5.8094,-5.8104,-5.8125,-5.8134,-5.8146,-5.8164,-5.8167,-5.8185,-5.8204,-5.82,-5.8225,-5.8235,-5.8257,-5.8264,-5.8283,-5.827,-5.8281,-5.8283,-5.8285,-5.8287,-5.8213,-5.8286,-5.8286,-5.8286,-5.8285,-5.8285,0,-5.8143,-5.8149,-5.8168,-5.8186,-5.8203,-5.8192,-5.8205,-5.8219,-5.8241,-5.8252,-5.8268,-5.8294,-5.8314,-5.8317,-5.8336,-5.8351,-5.8345,-5.8356,-5.8353,-5.8354,-5.8298,-5.8289,-5.836,-5.836,-5.836,-5.836,-5.836,-5.836,-5.818,-5.8211,-5.8211,-5.8248,-5.8254,-5.8278,-5.8287,-5.8298,-5.8307,-5.8336,-5.8353,-5.8356,-5.8364,-5.8384,-5.8401,-5.8402,-5.8408,-5.8421,-5.8419,-5.8365,-5.8358,-5.8351,-5.8342,-5.8423,-5.8423,-5.8473,-5.8473,-5.8474]},{"header":{"parameterUnit":"m.s-1","parameterCategory":1,"la1":30.2991,"la2":30.254,"lo1":-89.0895,"lo2":-89.0444,"dy":0.0017,"dx":0.0017,"nx":28,"ny":28,"refTime":"2024-05-11T03:00:00:Z","depth":0,"parameterNumber":3,"parameterNumberName":"V-component_of_WINDS"},"data":[0,0,0,0,0,0,0,0,0,0,0,0,0,0,0,0,0,0,0,0,0,0,0,0,0,0,0,0,0,0,0,0,0,0,0,0,0,0,0,0,0,0,0,0,0,0,0,0,0,0,0,0,0,0,0,0,0,0,3.5907,3.5908,0,3.5927,3.5927,3.5927,3.5947,3.5947,3.5948,3.5948,3.5964,3.5965,3.5965,0,0,0,0,0,0,0,0,0,0,0,0,0,3.5885,3.5886,3.5907,3.5908,3.5908,3.5927,3.5927,3.5927,3.5947,3.5947,3.5948,3.5948,3.5964,3.5965,3.5965,0,0,0,0,0,0,0,0,0,0,0,0,0,3.5899,3.5886,3.5907,3.592,3.5921,3.5927,3.5927,3.5927,3.5947,3.5947,3.5948,3.5948,3.5964,3.5965,3.5965,3.5958,0,0,3.5966,3.5966,0,0,0,0,0,0,0,0,3.5898,3.59,3.5918,3.5919,3.5921,3.5935,3.5925,3.5938,3.5947,3.5937,3.5948,3.5948,3.5954,3.5955,3.5958,3.5959,3.596,3.5966,3.5966,3.5966,3.5966,0,0,0,0,0,0,0,3.5897,3.5899,3.5915,3.5918,3.592,3.5924,3.5926,3.5928,3.5943,3.5938,3.5939,3.5942,3.5955,3.5958,3.5958,3.596,3.5966,3.5966,3.5966,3.5966,3.5958,3.5958,0,0,0,0,0,0,3.5895,3.5898,3.5914,3.5916,3.591,3.5924,3.5927,3.593,3.5943,3.5945,3.5941,3.5942,3.5957,3.5958,3.5959,3.5953,3.5966,3.5966,3.5966,3.5958,3.5958,3.5958,0,0,0,0,0,0,3.5894,3.5896,3.5914,3.5907,3.591,3.5924,3.5927,3.593,3.5933,3.5946,3.5948,3.5941,3.5957,3.5959,3.5959,3.5954,3.5966,3.5967,3.5959,3.5958,3.5958,3.594,0,0,0,0,0,0,3.5893,3.5896,3.5893,3.5907,3.591,3.5914,3.5927,3.593,3.5934,3.5935,3.5946,3.5948,3.5958,3.5958,3.5959,3.5954,3.5967,3.5959,3.5959,3.5958,3.5941,3.5939,3.5937,0,0,0,0,0,3.5892,3.5887,3.5893,3.5895,3.5908,3.5913,3.5915,3.5927,3.5933,3.5931,3.594,3.5948,3.5954,3.5958,3.5959,3.5955,3.596,3.5959,3.5958,3.5942,3.594,3.5937,0,0,0,0,0,0,3.5871,3.5889,3.5896,3.5895,3.5903,3.5917,3.5914,3.5923,3.5928,3.593,3.5943,3.5945,3.5944,3.5949,3.5953,3.595,3.5958,3.5958,3.5946,3.5944,3.5942,3.594,3.5967,0,0,0,0,0,3.5866,3.587,3.5885,3.5882,3.5886,3.59,3.5902,3.5911,3.5919,3.5922,3.593,3.5937,3.594,3.5942,3.5946,3.5943,3.5945,3.594,3.5938,3.5936,3.5935,3.5935,3.5932,3.5955,3.5955,3.5955,0,0,3.5856,3.5866,3.5867,3.5878,3.5885,3.5888,3.5902,3.5904,3.5906,3.5922,3.5923,3.5929,3.5938,3.5936,3.5936,3.5941,3.593,3.5935,3.5934,3.5934,3.5933,3.5931,3.5929,3.5954,3.5954,3.5954,0,0,3.5839,3.5847,3.5846,3.5854,3.5865,3.5874,3.5874,3.5887,3.5892,3.5894,3.5906,3.5909,3.5914,3.592,3.5924,3.5911,3.5919,3.5912,3.5901,3.59,3.5899,3.5897,3.5893,3.5891,3.5911,3.5911,3.5911,0,3.5824,3.583,3.5845,3.5847,3.5851,3.5867,3.5867,3.5872,3.5884,3.5886,3.5892,3.59,3.5907,3.5908,3.5905,3.5907,3.5907,3.5911,3.5898,3.5897,3.5895,3.5892,3.589,3.591,3.591,3.591,3.5911,0,3.5812,3.5816,3.5814,3.5827,3.5831,3.5832,3.5846,3.5848,3.5857,3.5866,3.5867,3.5876,3.5883,3.5884,3.5891,3.5886,3.5888,3.5896,3.5905,3.5892,3.5889,3.5887,3.5909,3.5909,3.5909,3.591,0,0,3.5781,3.5803,3.5802,3.5808,3.5822,3.5825,3.5827,3.5835,3.5837,3.5844,3.5846,3.5851,3.5859,3.5863,3.5872,3.5871,3.5861,3.5878,3.5879,3.5875,3.5856,3.585,3.5848,3.5867,3.5867,3.5866,3.5855,0,3.5767,3.5772,3.5785,3.5786,3.579,3.5806,3.5807,3.5816,3.5824,3.5828,3.5837,3.5841,3.585,3.5853,3.5853,3.5862,3.5857,3.5863,3.5868,3.5868,3.5865,3.5846,3.584,3.5829,3.5854,3.5854,3.5854,0,3.575,3.5759,3.576,3.5775,3.5777,3.5779,3.5788,3.5792,3.5802,3.5808,3.5814,3.5824,3.5826,3.5835,3.5838,3.5842,3.5845,3.585,3.585,3.585,3.586,3.5847,3.5826,3.5824,3.5851,3.5852,3.5852,0,3.5728,3.5739,3.5742,3.5747,3.5764,3.5765,3.5772,3.5783,3.5787,3.5795,3.5798,3.5805,3.5809,3.5814,3.5826,3.5831,3.5828,3.5838,3.5833,3.5833,3.5831,3.5831,3.5811,3.5833,3.5833,3.5833,3.5833,0,3.571,3.571,3.5732,3.5734,3.5735,3.575,3.5751,3.5759,3.5769,3.5772,3.5786,3.5788,3.5804,3.5808,3.5817,3.5819,3.582,3.5825,3.5828,3.5824,3.5823,3.5826,3.5827,3.5833,3.5833,3.5833,3.5833,0,3.5685,3.5699,3.5704,3.5721,3.5725,3.5725,3.574,3.5742,3.5752,3.5756,3.5758,3.5773,3.5779,3.5791,3.58,3.5806,3.5806,3.581,3.5802,3.5804,3.5799,3.5799,3.5779,3.5777,3.5801,3.58,3.58,0,3.5672,3.5673,3.5692,3.5696,3.5703,3.5709,3.5714,3.5729,3.5734,3.5747,3.5747,3.5754,3.5761,3.577,3.5781,3.5788,3.5793,3.5785,3.5793,3.579,3.5793,3.5793,3.5793,3.5783,3.5783,3.5782,3.5782,0,3.5649,3.5657,3.5665,3.5675,3.5681,3.569,3.5699,3.5701,3.5719,3.5723,3.573,3.5735,3.5746,3.5753,3.5762,3.5768,3.5778,3.578,3.5779,3.5775,3.5771,3.5774,3.5797,3.578,3.578,3.578,3.578,3.578,3.5631,3.5633,3.5646,3.5654,3.5663,3.5672,3.5675,3.5687,3.5693,3.5704,3.5712,3.5719,3.573,3.5743,3.5749,3.5754,3.5759,3.5758,3.5758,3.5757,3.5756,3.5771,3.5756,3.5756,3.5756,3.5756,3.5756,0,3.5609,3.5619,3.5626,3.564,3.5646,3.5657,3.5667,3.5672,3.5678,3.5688,3.5695,3.5703,3.5711,3.5723,3.5732,3.5733,3.5738,3.5735,3.5735,3.5736,3.5751,3.5751,3.5731,3.5731,3.5731,3.5731,3.5731,3.5731,3.5598,3.5602,3.5612,3.5621,3.5631,3.5639,3.5644,3.5652,3.566,3.567,3.5677,3.5685,3.5697,3.5706,3.5713,3.5717,3.5719,3.5715,3.5719,3.5733,3.5735,3.5737,3.5737,3.5715,3.5715,3.5704,3.5704,3.5704]}]]